Year,Month,Day,Hour,Minute,Value (Times are PST for windgust in km/hr)
2017,06,16,00,01,1.60
2017,06,16,00,02,1.60
2017,06,16,00,06,1.60
2017,06,16,00,07,1.60
2017,06,16,00,47,1.60
2017,06,16,01,02,1.60
2017,06,16,01,03,3.20
2017,06,16,01,04,3.20
2017,06,16,01,05,1.60
2017,06,16,01,06,1.60
2017,06,16,01,23,1.60
2017,06,16,01,24,3.20
2017,06,16,01,25,3.20
2017,06,16,01,26,3.20
2017,06,16,01,27,3.20
2017,06,16,01,32,1.60
2017,06,16,01,33,1.60
2017,06,16,01,34,1.60
2017,06,16,02,06,1.60
2017,06,16,02,07,3.20
2017,06,16,02,08,3.20
2017,06,16,02,09,1.60
2017,06,16,02,10,1.60
2017,06,16,03,04,1.60
2017,06,16,03,05,1.60
2017,06,16,03,06,1.60
2017,06,16,03,14,1.60
2017,06,16,03,26,1.60
2017,06,16,03,30,3.20
2017,06,16,03,31,3.20
2017,06,16,03,32,1.60
2017,06,16,06,58,1.60
2017,06,16,07,01,1.60
2017,06,16,07,02,1.60
2017,06,16,07,04,1.60
2017,06,16,07,22,3.20
2017,06,16,07,23,3.20
2017,06,16,07,25,1.60
2017,06,16,07,27,3.20
2017,06,16,07,29,1.60
2017,06,16,07,30,1.60
2017,06,16,07,33,1.60
2017,06,16,07,34,1.60
2017,06,16,07,35,3.20
2017,06,16,07,36,1.60
2017,06,16,07,38,6.40
2017,06,16,07,39,4.80
2017,06,16,07,40,1.60
2017,06,16,07,41,3.20
2017,06,16,07,42,8.10
2017,06,16,07,43,6.40
2017,06,16,07,44,4.80
2017,06,16,07,46,4.80
2017,06,16,07,47,3.20
2017,06,16,07,48,6.40
2017,06,16,07,49,3.20
2017,06,16,07,50,1.60
2017,06,16,07,51,1.60
2017,06,16,07,52,1.60
2017,06,16,07,53,3.20
2017,06,16,07,54,3.20
2017,06,16,07,55,3.20
2017,06,16,07,56,1.60
2017,06,16,07,59,3.20
2017,06,16,08,00,3.20
2017,06,16,08,01,4.80
2017,06,16,08,02,1.60
2017,06,16,08,03,1.60
2017,06,16,08,04,9.60
2017,06,16,08,05,8.10
2017,06,16,08,06,3.20
2017,06,16,08,07,4.80
2017,06,16,08,08,4.80
2017,06,16,08,09,6.40
2017,06,16,08,10,4.80
2017,06,16,08,11,3.20
2017,06,16,08,12,3.20
2017,06,16,08,13,1.60
2017,06,16,08,14,1.60
2017,06,16,08,15,6.40
2017,06,16,08,16,6.40
2017,06,16,08,17,1.60
2017,06,16,08,20,4.80
2017,06,16,08,21,4.80
2017,06,16,08,22,4.80
2017,06,16,08,23,3.20
2017,06,16,08,24,1.60
2017,06,16,08,27,6.40
2017,06,16,08,28,3.20
2017,06,16,08,29,1.60
2017,06,16,08,30,1.60
2017,06,16,08,31,3.20
2017,06,16,08,32,1.60
2017,06,16,08,33,6.40
2017,06,16,08,34,3.20
2017,06,16,08,35,4.80
2017,06,16,08,36,3.20
2017,06,16,08,37,3.20
2017,06,16,08,38,1.60
2017,06,16,08,39,6.40
2017,06,16,08,40,6.40
2017,06,16,08,41,6.40
2017,06,16,08,42,1.60
2017,06,16,08,43,3.20
2017,06,16,08,45,1.60
2017,06,16,08,46,3.20
2017,06,16,08,47,1.60
2017,06,16,08,48,1.60
2017,06,16,08,49,3.20
2017,06,16,08,50,1.60
2017,06,16,08,51,1.60
2017,06,16,08,52,6.40
2017,06,16,08,53,8.10
2017,06,16,08,54,8.10
2017,06,16,08,55,1.60
2017,06,16,08,56,3.20
2017,06,16,08,57,8.10
2017,06,16,08,58,6.40
2017,06,16,08,59,9.60
2017,06,16,09,00,8.10
2017,06,16,09,01,4.80
2017,06,16,09,02,3.20
2017,06,16,09,03,1.60
2017,06,16,09,04,3.20
2017,06,16,09,05,3.20
2017,06,16,09,06,4.80
2017,06,16,09,07,8.10
2017,06,16,09,08,4.80
2017,06,16,09,09,8.10
2017,06,16,09,10,8.10
2017,06,16,09,11,4.80
2017,06,16,09,12,3.20
2017,06,16,09,13,6.40
2017,06,16,09,14,1.60
2017,06,16,09,16,1.60
2017,06,16,09,17,1.60
2017,06,16,09,18,1.60
2017,06,16,09,19,6.40
2017,06,16,09,20,4.80
2017,06,16,09,21,3.20
2017,06,16,09,22,4.80
2017,06,16,09,23,8.10
2017,06,16,09,24,6.40
2017,06,16,09,25,3.20
2017,06,16,09,26,1.60
2017,06,16,09,27,4.80
2017,06,16,09,28,4.80
2017,06,16,09,29,1.60
2017,06,16,09,30,3.20
2017,06,16,09,32,12.90
2017,06,16,09,33,14.50
2017,06,16,09,34,3.20
2017,06,16,09,35,4.80
2017,06,16,09,36,4.80
2017,06,16,09,37,6.40
2017,06,16,09,38,1.60
2017,06,16,09,39,8.10
2017,06,16,09,40,3.20
2017,06,16,09,41,6.40
2017,06,16,09,42,6.40
2017,06,16,09,43,6.40
2017,06,16,09,44,3.20
2017,06,16,09,45,6.40
2017,06,16,09,46,8.10
2017,06,16,09,47,3.20
2017,06,16,09,48,3.20
2017,06,16,09,49,6.40
2017,06,16,09,50,4.80
2017,06,16,09,51,3.20
2017,06,16,09,53,4.80
2017,06,16,09,54,4.80
2017,06,16,09,55,4.80
2017,06,16,09,56,4.80
2017,06,16,09,57,4.80
2017,06,16,09,58,1.60
2017,06,16,09,59,9.60
2017,06,16,10,00,9.60
2017,06,16,10,01,8.10
2017,06,16,10,02,14.50
2017,06,16,10,03,12.90
2017,06,16,10,04,8.10
2017,06,16,10,05,4.80
2017,06,16,10,06,3.20
2017,06,16,10,07,1.60
2017,06,16,10,08,3.20
2017,06,16,10,09,4.80
2017,06,16,10,10,4.80
2017,06,16,10,11,4.80
2017,06,16,10,12,6.40
2017,06,16,10,13,4.80
2017,06,16,10,14,1.60
2017,06,16,10,15,3.20
2017,06,16,10,16,3.20
2017,06,16,10,17,3.20
2017,06,16,10,18,9.60
2017,06,16,10,19,6.40
2017,06,16,10,20,9.60
2017,06,16,10,21,6.40
2017,06,16,10,22,3.20
2017,06,16,10,23,4.80
2017,06,16,10,24,1.60
2017,06,16,10,25,6.40
2017,06,16,10,26,8.10
2017,06,16,10,27,6.40
2017,06,16,10,28,4.80
2017,06,16,10,29,3.20
2017,06,16,10,30,4.80
2017,06,16,10,31,9.60
2017,06,16,10,32,8.10
2017,06,16,10,33,12.90
2017,06,16,10,34,8.10
2017,06,16,10,35,6.40
2017,06,16,10,36,12.90
2017,06,16,10,37,14.50
2017,06,16,10,38,14.50
2017,06,16,10,39,14.50
2017,06,16,10,40,9.60
2017,06,16,10,41,9.60
2017,06,16,10,42,4.80
2017,06,16,10,43,6.40
2017,06,16,10,44,1.60
2017,06,16,10,45,4.80
2017,06,16,10,46,8.10
2017,06,16,10,47,8.10
2017,06,16,10,48,9.60
2017,06,16,10,49,9.60
2017,06,16,10,50,8.10
2017,06,16,10,51,16.10
2017,06,16,10,52,14.50
2017,06,16,10,53,12.90
2017,06,16,10,54,6.40
2017,06,16,10,55,6.40
2017,06,16,10,56,6.40
2017,06,16,10,57,4.80
2017,06,16,10,58,6.40
2017,06,16,10,59,6.40
2017,06,16,11,00,6.40
2017,06,16,11,01,6.40
2017,06,16,11,02,4.80
2017,06,16,11,03,8.10
2017,06,16,11,04,6.40
2017,06,16,11,05,4.80
2017,06,16,11,06,3.20
2017,06,16,11,07,3.20
2017,06,16,11,08,12.90
2017,06,16,11,09,12.90
2017,06,16,11,10,8.10
2017,06,16,11,11,3.20
2017,06,16,11,12,3.20
2017,06,16,11,13,4.80
2017,06,16,11,14,8.10
2017,06,16,11,15,8.10
2017,06,16,11,16,4.80
2017,06,16,11,17,4.80
2017,06,16,11,18,8.10
2017,06,16,11,19,4.80
2017,06,16,11,20,3.20
2017,06,16,11,21,8.10
2017,06,16,11,22,8.10
2017,06,16,11,23,6.40
2017,06,16,11,24,4.80
2017,06,16,11,25,8.10
2017,06,16,11,26,8.10
2017,06,16,11,27,6.40
2017,06,16,11,28,8.10
2017,06,16,11,29,8.10
2017,06,16,11,30,14.50
2017,06,16,11,31,11.30
2017,06,16,11,32,9.60
2017,06,16,11,33,6.40
2017,06,16,11,34,8.10
2017,06,16,11,35,9.60
2017,06,16,11,36,11.30
2017,06,16,11,37,12.90
2017,06,16,11,38,11.30
2017,06,16,11,39,6.40
2017,06,16,11,40,6.40
2017,06,16,11,41,3.20
2017,06,16,11,42,1.60
2017,06,16,11,43,3.20
2017,06,16,11,44,4.80
2017,06,16,11,45,6.40
2017,06,16,11,46,11.30
2017,06,16,11,47,12.90
2017,06,16,11,48,6.40
2017,06,16,11,49,3.20
2017,06,16,11,50,8.10
2017,06,16,11,51,6.40
2017,06,16,11,52,14.50
2017,06,16,11,53,12.90
2017,06,16,11,54,6.40
2017,06,16,11,55,8.10
2017,06,16,11,56,11.30
2017,06,16,11,57,11.30
2017,06,16,11,58,8.10
2017,06,16,11,59,14.50
2017,06,16,12,00,6.40
2017,06,16,12,01,3.20
2017,06,16,12,02,3.20
2017,06,16,12,03,4.80
2017,06,16,12,04,4.80
2017,06,16,12,05,4.80
2017,06,16,12,06,8.10
2017,06,16,12,07,12.90
2017,06,16,12,08,14.50
2017,06,16,12,09,8.10
2017,06,16,12,10,6.40
2017,06,16,12,11,11.30
2017,06,16,12,12,9.60
2017,06,16,12,13,9.60
2017,06,16,12,14,12.90
2017,06,16,12,15,8.10
2017,06,16,12,16,8.10
2017,06,16,12,17,6.40
2017,06,16,12,18,12.90
2017,06,16,12,19,8.10
2017,06,16,12,20,8.10
2017,06,16,12,21,9.60
2017,06,16,12,22,14.50
2017,06,16,12,23,6.40
2017,06,16,12,24,6.40
2017,06,16,12,25,6.40
2017,06,16,12,26,6.40
2017,06,16,12,27,6.40
2017,06,16,12,28,8.10
2017,06,16,12,29,6.40
2017,06,16,12,30,6.40
2017,06,16,12,31,12.90
2017,06,16,12,32,9.60
2017,06,16,12,33,6.40
2017,06,16,12,34,9.60
2017,06,16,12,35,4.80
2017,06,16,12,36,3.20
2017,06,16,12,37,8.10
2017,06,16,12,38,4.80
2017,06,16,12,39,9.60
2017,06,16,12,40,12.90
2017,06,16,12,41,8.10
2017,06,16,12,42,4.80
2017,06,16,12,43,3.20
2017,06,16,12,44,1.60
2017,06,16,12,45,1.60
2017,06,16,12,46,4.80
2017,06,16,12,47,9.60
2017,06,16,12,48,12.90
2017,06,16,12,49,6.40
2017,06,16,12,50,4.80
2017,06,16,12,51,6.40
2017,06,16,12,52,9.60
2017,06,16,12,53,9.60
2017,06,16,12,54,6.40
2017,06,16,12,55,3.20
2017,06,16,12,56,8.10
2017,06,16,12,57,8.10
2017,06,16,12,58,3.20
2017,06,16,12,59,4.80
2017,06,16,13,00,6.40
2017,06,16,13,01,11.30
2017,06,16,13,02,12.90
2017,06,16,13,03,9.60
2017,06,16,13,04,12.90
2017,06,16,13,05,14.50
2017,06,16,13,06,9.60
2017,06,16,13,07,6.40
2017,06,16,13,08,9.60
2017,06,16,13,09,9.60
2017,06,16,13,10,6.40
2017,06,16,13,11,11.30
2017,06,16,13,12,4.80
2017,06,16,13,13,6.40
2017,06,16,13,14,11.30
2017,06,16,13,15,12.90
2017,06,16,13,16,16.10
2017,06,16,13,17,12.90
2017,06,16,13,18,14.50
2017,06,16,13,19,12.90
2017,06,16,13,20,11.30
2017,06,16,13,21,9.60
2017,06,16,13,22,9.60
2017,06,16,13,23,9.60
2017,06,16,13,24,11.30
2017,06,16,13,25,6.40
2017,06,16,13,26,9.60
2017,06,16,13,27,6.40
2017,06,16,13,28,6.40
2017,06,16,13,29,8.10
2017,06,16,13,30,11.30
2017,06,16,13,31,4.80
2017,06,16,13,32,8.10
2017,06,16,13,33,9.60
2017,06,16,13,34,6.40
2017,06,16,13,35,8.10
2017,06,16,13,36,9.60
2017,06,16,13,37,8.10
2017,06,16,13,38,8.10
2017,06,16,13,39,9.60
2017,06,16,13,40,9.60
2017,06,16,13,41,8.10
2017,06,16,13,42,6.40
2017,06,16,13,43,8.10
2017,06,16,13,44,9.60
2017,06,16,13,45,12.90
2017,06,16,13,46,14.50
2017,06,16,13,47,8.10
2017,06,16,13,48,9.60
2017,06,16,13,49,8.10
2017,06,16,13,50,8.10
2017,06,16,13,51,4.80
2017,06,16,13,52,9.60
2017,06,16,13,53,9.60
2017,06,16,13,54,6.40
2017,06,16,13,55,9.60
2017,06,16,13,56,12.90
2017,06,16,13,57,11.30
2017,06,16,13,58,6.40
2017,06,16,13,59,12.90
2017,06,16,14,00,11.30
2017,06,16,14,01,8.10
2017,06,16,14,02,9.60
2017,06,16,14,03,8.10
2017,06,16,14,04,14.50
2017,06,16,14,05,12.90
2017,06,16,14,06,6.40
2017,06,16,14,07,4.80
2017,06,16,14,08,6.40
2017,06,16,14,09,9.60
2017,06,16,14,10,8.10
2017,06,16,14,11,9.60
2017,06,16,14,12,9.60
2017,06,16,14,13,6.40
2017,06,16,14,14,12.90
2017,06,16,14,15,9.60
2017,06,16,14,16,9.60
2017,06,16,14,17,9.60
2017,06,16,14,18,9.60
2017,06,16,14,19,4.80
2017,06,16,14,20,4.80
2017,06,16,14,21,8.10
2017,06,16,14,22,6.40
2017,06,16,14,23,6.40
2017,06,16,14,24,11.30
2017,06,16,14,25,8.10
2017,06,16,14,26,4.80
2017,06,16,14,27,6.40
2017,06,16,14,28,6.40
2017,06,16,14,29,3.20
2017,06,16,14,30,8.10
2017,06,16,14,31,6.40
2017,06,16,14,32,9.60
2017,06,16,14,33,9.60
2017,06,16,14,34,4.80
2017,06,16,14,35,6.40
2017,06,16,14,36,9.60
2017,06,16,14,37,9.60
2017,06,16,14,38,12.90
2017,06,16,14,39,14.50
2017,06,16,14,40,11.30
2017,06,16,14,41,9.60
2017,06,16,14,42,14.50
2017,06,16,14,43,12.90
2017,06,16,14,44,11.30
2017,06,16,14,45,9.60
2017,06,16,14,46,8.10
2017,06,16,14,47,11.30
2017,06,16,14,48,8.10
2017,06,16,14,49,9.60
2017,06,16,14,50,11.30
2017,06,16,14,51,9.60
2017,06,16,14,52,11.30
2017,06,16,14,53,11.30
2017,06,16,14,54,9.60
2017,06,16,14,55,9.60
2017,06,16,14,56,12.90
2017,06,16,14,57,8.10
2017,06,16,14,58,9.60
2017,06,16,14,59,11.30
2017,06,16,15,00,12.90
2017,06,16,15,01,11.30
2017,06,16,15,02,11.30
2017,06,16,15,03,8.10
2017,06,16,15,04,12.90
2017,06,16,15,05,6.40
2017,06,16,15,06,8.10
2017,06,16,15,07,11.30
2017,06,16,15,08,4.80
2017,06,16,15,09,12.90
2017,06,16,15,10,14.50
2017,06,16,15,11,12.90
2017,06,16,15,12,11.30
2017,06,16,15,13,4.80
2017,06,16,15,14,6.40
2017,06,16,15,15,8.10
2017,06,16,15,16,12.90
2017,06,16,15,17,12.90
2017,06,16,15,18,16.10
2017,06,16,15,19,12.90
2017,06,16,15,20,12.90
2017,06,16,15,21,8.10
2017,06,16,15,22,14.50
2017,06,16,15,23,14.50
2017,06,16,15,24,12.90
2017,06,16,15,25,4.80
2017,06,16,15,26,9.60
2017,06,16,15,27,12.90
2017,06,16,15,28,11.30
2017,06,16,15,29,6.40
2017,06,16,15,30,9.60
2017,06,16,15,31,9.60
2017,06,16,15,32,6.40
2017,06,16,15,33,8.10
2017,06,16,15,34,3.20
2017,06,16,15,39,3.20
2017,06,16,15,40,4.80
2017,06,16,15,41,9.60
2017,06,16,15,42,8.10
2017,06,16,15,43,6.40
2017,06,16,15,44,6.40
2017,06,16,15,45,6.40
2017,06,16,15,46,9.60
2017,06,16,15,47,6.40
2017,06,16,15,48,6.40
2017,06,16,15,49,8.10
2017,06,16,15,50,4.80
2017,06,16,15,51,6.40
2017,06,16,15,52,9.60
2017,06,16,15,53,4.80
2017,06,16,15,54,6.40
2017,06,16,15,55,4.80
2017,06,16,15,56,4.80
2017,06,16,15,57,11.30
2017,06,16,15,58,4.80
2017,06,16,15,59,6.40
2017,06,16,16,00,6.40
2017,06,16,16,01,11.30
2017,06,16,16,02,6.40
2017,06,16,16,03,9.60
2017,06,16,16,04,8.10
2017,06,16,16,05,6.40
2017,06,16,16,06,6.40
2017,06,16,16,07,8.10
2017,06,16,16,08,9.60
2017,06,16,16,09,11.30
2017,06,16,16,10,9.60
2017,06,16,16,11,9.60
2017,06,16,16,12,8.10
2017,06,16,16,13,6.40
2017,06,16,16,14,3.20
2017,06,16,16,15,6.40
2017,06,16,16,16,6.40
2017,06,16,16,17,4.80
2017,06,16,16,18,4.80
2017,06,16,16,19,4.80
2017,06,16,16,20,3.20
2017,06,16,16,21,3.20
2017,06,16,16,22,3.20
2017,06,16,16,23,4.80
2017,06,16,16,24,1.60
2017,06,16,16,25,3.20
2017,06,16,16,27,9.60
2017,06,16,16,28,6.40
2017,06,16,16,29,4.80
2017,06,16,16,30,3.20
2017,06,16,16,31,3.20
2017,06,16,16,32,6.40
2017,06,16,16,33,6.40
2017,06,16,16,34,4.80
2017,06,16,16,35,4.80
2017,06,16,16,36,4.80
2017,06,16,16,37,1.60
2017,06,16,16,38,1.60
2017,06,16,16,39,1.60
2017,06,16,16,40,1.60
2017,06,16,16,41,1.60
2017,06,16,16,42,3.20
2017,06,16,16,43,3.20
2017,06,16,16,44,1.60
2017,06,16,16,45,1.60
2017,06,16,16,48,4.80
2017,06,16,16,49,3.20
2017,06,16,16,50,3.20
2017,06,16,16,51,1.60
2017,06,16,16,52,3.20
2017,06,16,16,53,3.20
2017,06,16,16,54,3.20
2017,06,16,16,55,3.20
2017,06,16,16,56,1.60
2017,06,16,16,57,1.60
2017,06,16,16,58,1.60
2017,06,16,17,00,1.60
2017,06,16,17,02,3.20
2017,06,16,17,03,1.60
2017,06,16,17,10,3.20
2017,06,16,17,11,3.20
2017,06,16,17,12,3.20
2017,06,16,17,13,1.60
2017,06,16,17,14,1.60
2017,06,16,17,19,3.20
2017,06,16,17,20,4.80
2017,06,16,17,21,3.20
2017,06,16,17,22,4.80
2017,06,16,17,23,3.20
2017,06,16,17,24,4.80
2017,06,16,17,25,1.60
2017,06,16,17,27,3.20
2017,06,16,17,28,3.20
2017,06,16,17,29,4.80
2017,06,16,17,30,4.80
2017,06,16,17,31,6.40
2017,06,16,17,32,4.80
2017,06,16,17,33,1.60
2017,06,16,17,34,3.20
2017,06,16,17,35,4.80
2017,06,16,17,36,3.20
2017,06,16,17,37,4.80
2017,06,16,17,38,6.40
2017,06,16,17,39,4.80
2017,06,16,17,40,4.80
2017,06,16,17,41,8.10
2017,06,16,17,42,4.80
2017,06,16,17,44,1.60
2017,06,16,17,45,1.60
2017,06,16,17,47,1.60
2017,06,16,17,48,3.20
2017,06,16,17,49,6.40
2017,06,16,17,50,6.40
2017,06,16,17,51,4.80
2017,06,16,17,52,4.80
2017,06,16,17,53,9.60
2017,06,16,17,54,6.40
2017,06,16,17,55,4.80
2017,06,16,17,56,6.40
2017,06,16,17,57,6.40
2017,06,16,17,58,9.60
2017,06,16,17,59,6.40
2017,06,16,18,00,6.40
2017,06,16,18,01,4.80
2017,06,16,18,02,8.10
2017,06,16,18,03,4.80
2017,06,16,18,04,3.20
2017,06,16,18,05,8.10
2017,06,16,18,06,4.80
2017,06,16,18,07,3.20
2017,06,16,18,08,1.60
2017,06,16,18,09,6.40
2017,06,16,18,10,3.20
2017,06,16,18,11,3.20
2017,06,16,18,12,3.20
2017,06,16,18,13,4.80
2017,06,16,18,14,4.80
2017,06,16,18,15,3.20
2017,06,16,18,16,1.60
2017,06,16,18,17,3.20
2017,06,16,18,18,9.60
2017,06,16,18,19,9.60
2017,06,16,18,20,4.80
2017,06,16,18,21,3.20
2017,06,16,18,22,3.20
2017,06,16,18,23,3.20
2017,06,16,18,24,3.20
2017,06,16,18,25,6.40
2017,06,16,18,26,8.10
2017,06,16,18,27,6.40
2017,06,16,18,28,4.80
2017,06,16,18,29,4.80
2017,06,16,18,30,4.80
2017,06,16,18,31,3.20
2017,06,16,18,32,3.20
2017,06,16,18,33,4.80
2017,06,16,18,34,4.80
2017,06,16,18,35,4.80
2017,06,16,18,36,8.10
2017,06,16,18,37,12.90
2017,06,16,18,38,6.40
2017,06,16,18,39,3.20
2017,06,16,18,40,3.20
2017,06,16,18,41,3.20
2017,06,16,18,42,3.20
2017,06,16,18,43,1.60
2017,06,16,18,44,6.40
2017,06,16,18,45,1.60
2017,06,16,18,46,3.20
2017,06,16,18,47,1.60
2017,06,16,18,48,1.60
2017,06,16,18,49,4.80
2017,06,16,18,50,1.60
2017,06,16,18,51,3.20
2017,06,16,18,52,3.20
2017,06,16,18,53,4.80
2017,06,16,18,54,6.40
2017,06,16,18,55,8.10
2017,06,16,18,56,8.10
2017,06,16,18,57,8.10
2017,06,16,18,58,6.40
2017,06,16,18,59,6.40
2017,06,16,19,00,6.40
2017,06,16,19,01,3.20
2017,06,16,19,02,1.60
2017,06,16,19,03,4.80
2017,06,16,19,04,1.60
2017,06,16,19,05,3.20
2017,06,16,19,06,3.20
2017,06,16,19,07,1.60
2017,06,16,19,08,3.20
2017,06,16,19,09,3.20
2017,06,16,19,10,3.20
2017,06,16,19,11,9.60
2017,06,16,19,12,8.10
2017,06,16,19,13,9.60
2017,06,16,19,14,6.40
2017,06,16,19,15,4.80
2017,06,16,19,16,4.80
2017,06,16,19,17,4.80
2017,06,16,19,18,3.20
2017,06,16,19,19,4.80
2017,06,16,19,20,11.30
2017,06,16,19,21,14.50
2017,06,16,19,22,8.10
2017,06,16,19,23,11.30
2017,06,16,19,24,6.40
2017,06,16,19,25,9.60
2017,06,16,19,26,8.10
2017,06,16,19,27,4.80
2017,06,16,19,28,6.40
2017,06,16,19,29,6.40
2017,06,16,19,30,12.90
2017,06,16,19,31,6.40
2017,06,16,19,32,9.60
2017,06,16,19,33,9.60
2017,06,16,19,34,11.30
2017,06,16,19,35,11.30
2017,06,16,19,36,9.60
2017,06,16,19,37,6.40
2017,06,16,19,38,6.40
2017,06,16,19,39,6.40
2017,06,16,19,40,6.40
2017,06,16,19,41,3.20
2017,06,16,19,42,6.40
2017,06,16,19,43,9.60
2017,06,16,19,44,9.60
2017,06,16,19,45,3.20
2017,06,16,19,46,4.80
2017,06,16,19,47,6.40
2017,06,16,19,48,6.40
2017,06,16,19,49,3.20
2017,06,16,19,52,8.10
2017,06,16,19,53,6.40
2017,06,16,19,54,4.80
2017,06,16,19,55,4.80
2017,06,16,19,56,4.80
2017,06,16,19,57,3.20
2017,06,16,19,59,3.20
2017,06,16,20,00,3.20
2017,06,16,20,01,3.20
2017,06,16,20,02,1.60
2017,06,16,20,03,1.60
2017,06,16,20,05,1.60
2017,06,16,20,06,1.60
2017,06,16,20,10,3.20
2017,06,16,20,11,1.60
2017,06,16,20,12,1.60
2017,06,16,20,13,1.60
2017,06,16,20,15,1.60
2017,06,16,20,21,1.60
2017,06,16,20,23,3.20
2017,06,16,20,24,1.60
2017,06,16,20,26,1.60
2017,06,16,20,29,3.20
2017,06,16,20,30,1.60
2017,06,16,20,31,3.20
2017,06,16,20,32,1.60
2017,06,16,20,33,1.60
2017,06,16,20,37,6.40
2017,06,16,20,38,4.80
2017,06,16,20,39,1.60
2017,06,16,20,42,1.60
2017,06,16,20,43,1.60
2017,06,16,20,44,1.60
2017,06,16,20,45,1.60
2017,06,16,20,48,1.60
2017,06,16,22,08,1.60
2017,06,16,22,09,3.20
2017,06,16,22,10,3.20
2017,06,16,22,11,8.10
2017,06,16,22,12,4.80
2017,06,16,22,13,4.80
2017,06,16,22,14,6.40
2017,06,16,22,15,9.60
2017,06,16,22,16,12.90
2017,06,16,22,17,6.40
2017,06,16,22,18,6.40
2017,06,16,22,19,11.30
2017,06,16,22,20,6.40
2017,06,16,22,21,6.40
2017,06,16,22,22,4.80
2017,06,16,22,23,11.30
2017,06,16,22,24,8.10
2017,06,16,22,25,8.10
2017,06,16,22,26,8.10
2017,06,16,22,27,3.20
2017,06,16,22,28,4.80
2017,06,16,22,29,4.80
2017,06,16,22,30,8.10
2017,06,16,22,31,6.40
2017,06,16,22,32,6.40
2017,06,16,22,33,8.10
2017,06,16,22,34,4.80
2017,06,16,22,35,6.40
2017,06,16,22,36,8.10
2017,06,16,22,37,4.80
2017,06,16,22,38,8.10
2017,06,16,22,39,4.80
2017,06,16,22,40,4.80
2017,06,16,22,41,3.20
2017,06,16,22,42,3.20
2017,06,16,22,43,6.40
2017,06,16,22,44,4.80
2017,06,16,22,45,4.80
2017,06,16,22,46,4.80
2017,06,16,22,51,4.80
2017,06,16,22,52,6.40
2017,06,16,22,53,6.40
2017,06,16,22,54,4.80
2017,06,16,22,55,3.20
2017,06,16,22,56,4.80
2017,06,16,22,57,3.20
2017,06,16,22,58,3.20
2017,06,16,22,59,4.80
2017,06,16,23,00,3.20
2017,06,16,23,01,3.20
2017,06,16,23,02,3.20
2017,06,16,23,03,4.80
2017,06,16,23,04,4.80
2017,06,16,23,05,4.80
2017,06,16,23,06,3.20
2017,06,16,23,07,3.20
2017,06,16,23,08,1.60
2017,06,16,23,09,3.20
2017,06,16,23,10,4.80
2017,06,16,23,11,6.40
2017,06,16,23,12,3.20
2017,06,16,23,13,3.20
2017,06,16,23,14,3.20
2017,06,16,23,15,3.20
2017,06,16,23,16,3.20
2017,06,16,23,17,3.20
2017,06,16,23,18,4.80
2017,06,16,23,19,3.20
2017,06,16,23,20,3.20
2017,06,16,23,21,4.80
2017,06,16,23,22,3.20
2017,06,16,23,24,3.20
2017,06,16,23,25,3.20
2017,06,16,23,26,3.20
2017,06,16,23,27,3.20
2017,06,16,23,28,3.20
2017,06,16,23,29,3.20
2017,06,16,23,30,3.20
2017,06,16,23,31,3.20
2017,06,16,23,32,1.60
2017,06,16,23,33,3.20
2017,06,16,23,34,3.20
2017,06,16,23,35,3.20
2017,06,16,23,36,1.60
2017,06,16,23,37,3.20
2017,06,16,23,38,3.20
2017,06,16,23,46,3.20
2017,06,16,23,47,1.60
2017,06,16,23,48,3.20
2017,06,16,23,49,3.20
2017,06,16,23,50,1.60
2017,06,16,23,54,4.80
2017,06,16,23,55,1.60
2017,06,16,23,56,1.60
